Wind_Speed
60 60 58 50 52 50 52 52 50 52 58 52 51 54 50 50 49 47 47 48 36 30 31 32 30 32 33 35 33 33 32 32 32 30 29 29 29 31 33 34 35 35 35 36
56 57 49 55 49 52 53 54 51 51 51 50 52 55 56 47 51 49 45 43 40 36 34 35 32 30 32 31 32 33 33 36 34 33 33 32 30 29 31 33 36 39 39 40
54 42 50 53 54 56 54 52 51 53 52 48 52 52 56 46 49 52 46 44 40 39 39 38 37 35 29 29 27 27 27 29 32 30 32 33 31 29 30 32 34 35 35 35
45 43 45 48 55 53 53 53 58 56 55 52 55 53 52 51 49 48 48 46 43 42 40 41 40 41 39 32 31 30 30 25 27 28 27 27 33 36 33 32 32 32 33 33
53 45 38 41 38 45 43 46 48 48 49 55 54 58 43 50 46 52 49 48 49 48 46 44 43 43 43 38 36 36 35 32 29 28 25 25 26 25 30 35 38 39 37 37
52 51 50 47 47 47 44 44 43 44 50 51 43 55 50 48 45 48 51 47 51 52 51 48 47 47 45 43 40 40 38 35 33 32 29 27 27 27 31 31 34 34 37 40
50 47 47 47 53 58 58 51 44 45 47 45 46 50 47 48 47 45 45 49 51 54 53 52 50 50 49 48 45 42 39 36 35 34 33 31 27 28 30 31 31 33 35 35
50 52 50 45 53 53 43 46 43 41 43 38 48 45 46 49 51 50 44 47 52 53 54 54 54 53 52 51 51 48 46 43 42 41 39 36 35 34 35 34 32 33 31 28
53 52 52 47 39 28 42 41 39 43 41 39 39 35 38 47 46 48 51 46 47 55 55 56 56 55 55 55 54 53 51 49 47 47 46 44 41 41 41 40 39 37 38 36
55 56 63 49 47 41 34 30 33 36 38 41 38 39 38 38 37 43 43 50 50 50 51 52 56 59 59 59 58 57 56 56 54 53 53 53 51 49 48 46 45 44 45 44
57 57 61 66 60 50 43 41 40 40 41 40 36 33 34 33 34 34 37 41 42 46 50 54 55 57 59 62 64 62 60 59 59 58 58 56 55 55 53 52 52 51 51 51
57 56 57 59 58 55 54 37 42 48 46 44 43 37 38 35 36 39 37 38 39 42 43 47 52 56 60 63 64 66 66 65 63 61 60 61 60 59 58 58 58 59 59 59
54 59 58 57 50 45 39 40 45 38 40 42 44 44 42 40 40 44 36 37 35 33 36 40 46 50 55 59 64 68 70 69 69 68 68 68 67 64 64 65 65 65 64 64
49 52 53 54 52 50 44 43 36 39 41 39 44 38 39 43 43 42 31 29 37 37 41 42 42 45 49 51 53 56 62 66 68 71 71 70 68 68 70 70 69 69 68 67
44 47 48 49 51 54 55 55 58 57 36 42 38 40 41 43 49 47 46 46 44 44 45 40 41 44 47 50 52 50 52 56 59 62 65 67 68 67 69 71 68 65 66 65
39 41 45 47 47 51 51 52 52 54 54 49 41 46 41 45 48 50 56 53 52 51 51 50 47 47 49 51 51 48 48 50 52 52 52 55 59 61 60 62 65 67 70 71
36 38 42 44 46 48 51 51 51 49 48 45 46 38 46 47 53 54 56 59 58 57 55 54 51 49 49 51 54 53 50 49 50 50 50 50 49 48 48 47 48 51 56 58
33 36 35 38 41 46 42 46 46 47 45 46 47 43 51 56 54 54 59 59 59 59 58 57 56 52 50 51 51 55 53 50 52 55 55 51 47 44 44 43 44 46 48 51
34 35 39 39 40 42 44 44 44 46 46 47 48 50 54 52 53 54 57 58 60 60 60 59 55 51 49 50 53 51 53 50 48 50 51 47 45 42 41 42 44 44 45 46
28 30 34 37 39 39 40 40 41 41 45 44 45 47 47 50 54 54 54 55 56 59 60 59 56 54 54 53 52 55 56 56 53 48 51 51 48 45 47 49 48 50 50 49
28 29 31 33 35 36 35 37 37 38 40 38 40 44 49 50 51 53 53 53 55 55 55 57 55 53 51 50 50 50 52 57 58 56 53 54 55 55 54 53 51 51 51 53
24 24 27 29 30 34 33 35 37 37 41 41 44 46 48 51 52 57 58 56 54 54 55 56 55 51 51 51 51 50 52 52 52 53 56 56 58 60 62 62 58 54 53 54
25 26 26 29 31 32 34 35 38 39 43 46 47 50 52 53 54 55 59 59 57 56 55 56 58 57 56 55 54 54 55 56 56 56 57 58 57 57 57 58 58 57 59 58
24 23 27 28 30 32 35 37 40 44 46 48 49 51 54 56 56 57 59 62 62 60 59 59 59 60 60 59 59 59 58 59 58 57 56 57 58 58 57 58 59 60 61 61
25 27 28 31 32 32 36 38 41 45 47 49 51 52 54 56 57 58 58 59 62 63 62 62 62 63 63 63 62 61 61 59 59 59 59 58 59 58 58 57 58 59 60 61
25 26 29 29 31 35 37 39 42 45 48 52 54 55 58 60 61 62 63 63 64 66 68 67 65 65 65 65 65 64 64 64 62 63 62 61 59 59 59 59 59 59 60 63
Wind_Direction
236 235 240 249 241 237 240 240 240 240 243 242 247 250 247 242 240 245 252 256 253 252 256 255 258 257 256 252 254 248 250 251 252 252 255 256 255 257 259 259 260 262 264 267
237 239 246 236 236 238 239 241 242 246 246 246 247 246 251 246 241 240 242 249 252 254 254 254 256 256 252 256 256 252 256 253 253 252 251 252 256 258 259 261 263 263 264 266
237 238 236 238 238 238 239 240 242 243 246 247 248 245 250 246 246 241 238 243 246 244 247 250 251 253 252 254 258 257 252 257 255 258 257 253 253 257 259 260 262 266 269 272
230 234 236 237 239 240 241 243 246 248 249 250 249 248 248 249 247 247 242 243 242 245 244 246 249 248 250 250 250 255 259 257 265 263 265 266 260 253 249 256 264 269 273 272
236 236 226 233 239 238 237 242 244 245 248 249 248 251 248 246 246 248 247 244 244 245 243 243 244 246 247 244 249 251 255 258 258 260 258 256 259 262 266 263 256 255 259 268
226 229 240 244 243 245 240 241 243 245 246 250 248 252 248 246 241 249 245 245 246 245 244 241 241 243 244 246 243 246 251 253 257 260 259 257 260 258 261 264 265 267 263 263
227 231 236 241 242 246 242 243 240 239 242 249 248 250 259 246 242 243 245 243 245 247 246 245 241 242 244 247 248 245 245 245 250 254 256 256 256 255 258 264 269 272 273 275
225 229 234 232 219 234 208 236 231 240 245 247 248 252 254 246 246 246 248 244 242 246 248 247 245 243 242 245 248 249 248 247 249 250 253 253 254 256 258 261 264 268 271 275
221 219 218 216 207 208 220 221 231 234 241 247 252 252 255 253 254 250 245 248 245 244 247 248 248 246 245 245 245 247 248 249 248 249 251 252 252 258 259 258 259 264 268 270
225 225 227 236 226 228 229 236 233 236 241 248 250 250 255 253 254 248 247 247 249 247 246 247 249 250 249 249 248 247 246 247 248 249 249 251 256 258 260 259 259 261 265 267
230 232 229 234 237 238 243 252 248 248 241 243 247 249 249 251 250 249 242 244 245 248 251 251 250 249 250 251 251 249 248 246 247 248 250 252 255 257 257 258 260 260 263 266
234 234 238 240 247 252 258 247 250 250 249 245 249 240 247 253 252 255 253 252 254 252 252 251 251 251 250 249 252 255 254 251 248 249 249 250 251 254 255 256 257 259 261 263
230 234 238 242 248 250 251 245 237 237 238 243 248 246 246 248 253 257 258 256 258 248 246 247 249 251 251 251 250 251 253 255 257 254 252 252 252 254 255 256 257 258 260 262
237 237 239 241 245 240 234 235 242 243 244 243 245 243 247 248 258 265 271 248 247 250 248 250 250 252 253 251 252 254 256 257 257 258 259 259 259 259 258 257 258 261 263 265
239 240 237 238 241 242 244 243 248 253 251 251 244 245 248 253 257 260 262 258 245 247 247 249 253 256 259 257 255 255 258 260 261 261 261 261 263 264 263 263 263 265 267 269
233 236 235 237 240 242 244 246 251 255 255 256 246 240 255 265 266 267 271 265 262 257 254 254 257 263 261 259 260 259 258 260 263 265 266 266 264 263 264 265 265 267 269 271
236 233 232 237 240 243 245 245 253 257 256 257 250 243 262 261 264 265 268 269 268 267 261 260 261 265 265 264 261 260 261 259 260 262 264 266 268 268 267 266 266 267 268 270
224 229 235 240 244 246 247 248 253 259 259 258 257 255 263 264 268 268 269 271 271 269 268 267 264 265 266 264 261 263 264 260 259 262 261 264 267 269 269 267 269 270 270 270
228 230 229 235 242 246 246 248 249 251 253 256 259 257 262 266 267 268 268 267 269 271 270 269 267 262 260 259 260 260 261 260 257 260 261 260 259 260 263 266 269 269 269 270
226 228 229 235 239 244 245 248 250 254 253 259 262 263 265 266 267 270 273 273 272 270 270 268 267 268 266 264 259 258 260 261 262 259 258 260 260 261 266 267 267 268 268 269
232 234 237 243 247 251 253 255 256 257 262 266 265 262 264 267 268 268 269 271 273 272 272 272 270 267 264 263 261 259 259 261 263 264 258 257 261 264 264 269 272 268 269 271
233 239 242 246 248 252 256 258 261 263 263 263 266 267 266 266 268 267 268 270 272 272 272 271 270 268 267 266 263 261 260 259 262 263 264 263 262 266 269 268 268 265 267 270
231 241 246 250 255 258 262 263 268 270 270 271 270 271 272 272 271 272 271 272 274 275 274 272 270 267 266 264 262 263 263 263 262 263 264 264 263 262 264 264 264 264 265 269
239 242 252 259 264 267 268 270 270 271 273 274 275 276 276 276 277 277 276 275 275 276 276 274 272 270 269 268 268 267 267 266 266 267 267 268 267 267 266 266 265 265 266 268
247 256 262 264 265 266 268 271 273 276 276 277 279 279 278 277 278 278 278 278 278 277 277 277 275 272 271 270 269 268 269 269 269 269 268 268 269 270 269 266 265 265 266 268
263 261 262 266 267 270 273 275 278 279 281 283 283 282 282 281 281 281 281 280 280 280 280 280 278 275 273 271 269 268 268 267 265 266 266 266 266 265 264 264 264 266 267 270
Height
5722 5727 5736 5752 5746 5755 5755 5758 5762 5766 5764 5772 5775 5777 5785 5789 5794 5797 5802 5805 5810 5812 5811 5810 5811 5810 5811 5812 5812 5813 5815 5815 5817 5819 5820 5820 5822 5823 5825 5826 5826 5827 5828 5828
5710 5717 5740 5729 5737 5742 5746 5750 5757 5755 5757 5762 5764 5769 5774 5783 5786 5789 5792 5797 5802 5804 5805 5804 5804 5804 5804 5805 5805 5806 5807 5808 5809 5811 5813 5814 5815 5817 5818 5819 5819 5819 5819 5820
5703 5724 5716 5721 5728 5732 5737 5742 5746 5747 5746 5753 5753 5760 5764 5776 5775 5779 5785 5789 5792 5795 5797 5797 5797 5797 5797 5798 5797 5798 5800 5802 5803 5804 5804 5807 5809 5810 5811 5811 5811 5812 5813 5814
5696 5704 5708 5711 5718 5724 5728 5736 5734 5735 5738 5743 5741 5748 5756 5765 5770 5773 5777 5779 5783 5784 5786 5788 5788 5788 5789 5790 5789 5792 5794 5795 5797 5798 5799 5800 5801 5802 5803 5803 5803 5804 5805 5806
5689 5698 5701 5704 5717 5715 5725 5721 5724 5727 5728 5728 5737 5736 5757 5754 5764 5764 5768 5769 5770 5772 5774 5777 5779 5779 5781 5782 5784 5786 5787 5788 5789 5791 5792 5792 5793 5794 5793 5794 5796 5796 5797 5797
5679 5688 5693 5701 5704 5709 5714 5715 5717 5719 5719 5716 5736 5727 5740 5748 5756 5752 5758 5759 5759 5759 5761 5765 5768 5770 5773 5774 5777 5779 5782 5783 5784 5784 5786 5787 5787 5788 5787 5788 5789 5789 5788 5788
5670 5678 5685 5692 5695 5698 5700 5707 5708 5708 5707 5714 5718 5718 5732 5738 5742 5744 5745 5748 5745 5747 5752 5754 5758 5761 5764 5766 5768 5771 5773 5776 5776 5776 5778 5780 5780 5780 5780 5780 5781 5780 5780 5781
5662 5668 5677 5683 5687 5687 5683 5694 5699 5697 5699 5710 5705 5715 5722 5725 5730 5731 5732 5733 5737 5740 5743 5745 5748 5750 5753 5756 5759 5762 5765 5767 5768 5769 5770 5771 5772 5772 5772 5773 5774 5773 5772 5772
5655 5661 5667 5674 5676 5679 5683 5686 5692 5691 5694 5699 5703 5710 5713 5713 5716 5718 5722 5726 5727 5730 5731 5735 5737 5740 5743 5744 5747 5751 5754 5757 5758 5759 5761 5762 5763 5763 5764 5765 5765 5765 5765 5765
5650 5654 5660 5664 5666 5671 5676 5682 5683 5686 5689 5692 5698 5700 5704 5706 5706 5708 5713 5715 5715 5718 5721 5723 5726 5729 5730 5731 5734 5737 5741 5743 5746 5747 5750 5752 5753 5754 5754 5755 5756 5757 5756 5755
5641 5647 5653 5653 5654 5662 5668 5672 5677 5681 5684 5686 5690 5695 5698 5700 5703 5702 5702 5703 5705 5707 5708 5710 5713 5714 5715 5717 5720 5723 5726 5729 5733 5736 5738 5740 5741 5742 5743 5744 5745 5746 5745 5744
5632 5637 5640 5647 5652 5656 5660 5664 5668 5671 5677 5681 5682 5692 5692 5695 5696 5692 5695 5694 5694 5695 5697 5697 5696 5699 5703 5707 5710 5711 5713 5716 5719 5722 5724 5726 5727 5728 5730 5732 5732 5732 5732 5732
5622 5626 5633 5639 5643 5645 5650 5658 5662 5666 5665 5671 5674 5686 5686 5687 5687 5684 5684 5686 5685 5686 5685 5684 5686 5687 5689 5692 5695 5696 5698 5700 5703 5706 5709 5711 5713 5715 5717 5718 5719 5719 5719 5719
5615 5619 5624 5632 5641 5640 5646 5651 5654 5656 5656 5665 5665 5679 5677 5677 5676 5676 5676 5678 5676 5677 5674 5676 5676 5676 5676 5679 5682 5684 5685 5687 5690 5692 5695 5697 5699 5700 5702 5702 5703 5704 5705 5705
5607 5611 5618 5622 5626 5631 5636 5641 5643 5643 5653 5649 5668 5667 5667 5666 5661 5664 5665 5667 5667 5666 5665 5668 5667 5668 5668 5668 5670 5674 5674 5675 5676 5679 5681 5683 5684 5686 5687 5688 5688 5689 5690 5690
5599 5604 5608 5613 5619 5622 5626 5629 5632 5636 5644 5644 5656 5653 5661 5656 5651 5653 5648 5650 5654 5655 5655 5656 5658 5658 5659 5659 5659 5662 5663 5664 5665 5665 5667 5668 5669 5670 5672 5673 5674 5675 5675 5676
5593 5598 5602 5606 5610 5613 5614 5626 5626 5631 5633 5640 5639 5653 5643 5643 5637 5642 5641 5638 5638 5640 5644 5646 5647 5648 5648 5649 5649 5649 5652 5653 5653 5653 5654 5655 5656 5656 5656 5658 5658 5659 5660 5660
5586 5591 5596 5599 5602 5603 5615 5614 5619 5620 5625 5627 5629 5638 5627 5627 5633 5630 5625 5627 5626 5627 5629 5632 5635 5637 5636 5637 5637 5638 5640 5642 5642 5642 5642 5643 5643 5644 5644 5645 5646 5646 5646 5647
5579 5583 5587 5590 5594 5599 5604 5607 5610 5609 5614 5612 5617 5621 5617 5617 5616 5613 5615 5616 5614 5614 5615 5617 5620 5623 5625 5624 5625 5627 5627 5628 5630 5630 5629 5630 5631 5632 5632 5632 5632 5633 5633 5633
5574 5577 5582 5584 5587 5590 5594 5597 5598 5599 5603 5606 5606 5606 5603 5603 5604 5604 5603 5602 5602 5601 5601 5603 5606 5608 5609 5610 5612 5614 5614 5614 5615 5617 5618 5618 5619 5620 5620 5620 5620 5620 5620 5620
5571 5574 5576 5578 5580 5584 5587 5588 5587 5590 5598 5593 5594 5594 5592 5591 5592 5592 5591 5591 5588 5589 5589 5588 5590 5592 5593 5594 5596 5598 5599 5600 5601 5601 5604 5605 5605 5606 5606 5606 5607 5606 5606 5606
5565 5567 5569 5571 5572 5575 5579 5579 5581 5583 5580 5581 5581 5582 5581 5579 5578 5577 5576 5577 5577 5576 5574 5574 5575 5577 5577 5578 5580 5582 5583 5584 5585 5586 5587 5589 5590 5591 5591 5591 5591 5591 5592 5592
5559 5561 5565 5567 5567 5569 5569 5570 5571 5571 5570 5568 5569 5568 5566 5565 5565 5563 5560 5560 5560 5560 5560 5558 5558 5560 5561 5562 5564 5565 5566 5568 5570 5571 5573 5573 5574 5574 5575 5575 5576 5576 5577 5577
5553 5556 5558 5559 5561 5561 5561 5560 5560 5559 5557 5555 5554 5553 5551 5548 5547 5546 5544 5542 5542 5542 5542 5541 5541 5542 5543 5544 5546 5548 5550 5552 5554 5555 5556 5557 5558 5558 5559 5559 5560 5561 5561 5561
5550 5551 5552 5552 5551 5552 5551 5551 5549 5547 5545 5543 5541 5539 5536 5533 5531 5529 5528 5525 5523 5522 5523 5522 5522 5523 5524 5525 5527 5530 5532 5534 5535 5537 5538 5540 5541 5542 5542 5543 5544 5545 5545 5544
5542 5543 5543 5544 5543 5542 5542 5540 5539 5536 5533 5529 5526 5524 5520 5517 5515 5512 5510 5507 5505 5503 5501 5502 5502 5503 5504 5505 5507 5510 5513 5515 5517 5519 5520 5522 5523 5525 5526 5527 5528 5528 5529 5528